Hourly Data Report for September 24, 2017

All times are specified in Local Standard Time (LST). Add 1 hour to adjust for Daylight Saving Time where and when it is observed.

DOAKTOWN AUTO RCS
NEW BRUNSWICK

46°35'06.090" N
66°00'35.071" W
43.00 m
8101201
71038
ADN

Download Data

Hourly Data (September 2017)
Hourly Data Report for September 24, 2017
Temp Definition
°C
Dew Point Temp Definition
°C
Rel Hum Definition
%
Wind Dir Definition
10's deg

Wind Spd Definition
km/h
Visibility Definition
km
Stn Press Definition
kPa
Hmdx Definition


Wind Chill Definition


Weather Definition


TIME
00:00 12.0 8.6 80 0 1   101.16     LegendNANA
01:00 11.0 8.8 86 24 3   101.19     LegendNANA
02:00 10.0 8.7 92   0   101.18     LegendNANA
03:00 9.0 7.9 93   0   101.16     LegendNANA
04:00 8.2 7.2 94 21 1   101.18     LegendNANA
05:00 7.9 7.1 95 26 2   101.14     LegendNANA
06:00 7.7 6.9 95 31 4   101.13     LegendNANA
07:00 8.6 7.9 95 21 2   101.07     LegendNANA
08:00 11.1 9.9 93 22 4   101.07     LegendNANA
09:00 15.5 11.0 75 25 5   101.03     LegendNANA
10:00 18.9 12.0 64 27 8   100.98     LegendNANA
11:00 22.0 13.3 58 26 7   100.92 25   LegendNANA
12:00 24.5 13.9 52 24 9   100.84 28   LegendNANA
13:00 25.3 15.1 53 24 11   100.83 29   LegendNANA
14:00 28.1 16.4 49 23 9   100.73 33   LegendNANA
15:00 29.1 17.6 50 26 13   100.71 35   LegendNANA
16:00 28.4 17.7 52 30 10   100.73 34   LegendNANA
17:00 27.0 17.0 54 2 7   100.80 32   LegendNANA
18:00 23.8 15.5 60 4 12   100.88 28   LegendNANA
19:00 22.0 15.4 66 5 7   100.98 26   LegendNANA
20:00 20.8 15.1 70 6 13   101.08 25   LegendNANA
21:00 19.2 14.9 76 7 8   101.12     LegendNANA
22:00 18.5 14.8 79 7 7   101.18     LegendNANA
23:00 17.7 14.3 80 5 6   101.19     LegendNANA

Notes on Data Quality.

Legend

  • E = Estimated
  • M = Missing
  • NA = Not Available
  • ‡ = Partner data that is not subject to review by the National Climate Archives
Date modified: